This demonstration page uses our WeatherBlox Daily Observations layout. Learn more.

Left ArrowRight Arrow

39.51506, -84.39828

Hourly Observations for April 24, 2015

Temp ( °F °C ) Dew Point ( °F °C ) Humidity (%) Winds ( mph kmh ) Pressure ( in mb ) Visibility ( mi km ) Precip ( " mm )
12:15 am 00:15 Clear 37 2.6 30 -1.1 77 77 N 3 6 30.12 1020 10 16.0934 N/A
12:35 am 00:35 Clear 37 2.6 31 -0.5 80 80 N N/A 30.15 1021 10 16.0934 N/A
12:55 am 00:55 Clear 35 1.4 29 -1.4 82 82 N N/A 30.15 1021 10 16.0934 N/A
1:15 am 01:15 Clear 37 2.5 32 -0.1 83 83 N N/A 30.15 1021 10 16.0934 N/A
1:35 am 01:35 Clear 36 2.4 32 -0.1 84 84 N N/A 30.15 1021 10 16.0934 N/A
1:55 am 01:55 Clear 35 1.5 30 -1 84 84 N N/A 30.15 1021 10 16.0934 N/A
2:15 am 02:15 Clear 34 1.2 30 -1.2 84 84 N 3 6 30.15 1021 10 16.0934 N/A
2:35 am 02:35 Clear 34 1.2 30 -1 85 85 N N/A 30.15 1021 10 16.0934 N/A
2:55 am 02:55 Clear 34 1.2 30 -1.1 85 85 NNE 3 6 30.15 1021 10 16.0934 N/A
3:15 am 03:15 Clear 33 0.7 29 -1.4 86 86 N 3 6 30.15 1021 10 16.0934 N/A
3:35 am 03:35 Clear 34 1.2 30 -1.1 85 85 N N/A 30.15 1021 10 16.0934 N/A
3:55 am 03:55 Clear 34 1.2 30 -1 85 85 N N/A 30.15 1021 10 16.0934 N/A
4:15 am 04:15 Clear 33 0.5 29 -1.6 86 86 N N/A 30.15 1021 10 16.0934 N/A
4:35 am 04:35 Clear 32 undefined 28 -2.1 86 86 N N/A 30.15 1021 10 16.0934 N/A
4:55 am 04:55 Clear 32 undefined 28 -2.1 86 86 N N/A 30.15 1021 10 16.0934 N/A
5:15 am 05:15 Clear 32 undefined 28 -2.2 85 85 N N/A 30.15 1021 10 16.0934 N/A
5:35 am 05:35 Clear 32 -0.1 28 -2.1 87 87 N N/A 30.15 1021 10 16.0934 N/A
5:55 am 05:55 Clear 32 undefined 28 -2 87 87 N N/A 30.15 1021 10 16.0934 N/A
6:15 am 06:15 Clear 32 undefined 28 -2.1 86 86 N 3 6 30.18 1022 10 16.0934 N/A
6:35 am 06:35 Clear 32 undefined 28 -2.1 86 86 N N/A 30.18 1022 10 16.0934 N/A
6:55 am 06:55 Sunny 31 -0.7 27 -2.7 87 87 N N/A 30.18 1022 10 16.0934 N/A
7:15 am 07:15 Sunny 32 undefined 28 -2 87 87 N N/A 30.18 1022 10 16.0934 N/A
7:35 am 07:35 Sunny 32 -0.2 28 -2.1 87 87 N N/A 30.21 1023 7 11.26538 N/A
7:55 am 07:55 Sunny 34 1.2 31 -0.5 89 89 N N/A 30.21 1023 10 16.0934 N/A
8:15 am 08:15 Sunny 34 1.2 31 -0.6 88 88 N N/A 30.18 1022 10 16.0934 N/A
8:35 am 08:35 Sunny 37 2.6 32 0.2 84 84 N N/A 30.18 1022 10 16.0934 N/A
8:55 am 08:55 Sunny 39 4 33 0.6 79 79 N N/A 30.18 1022 10 16.0934 N/A
9:15 am 09:15 Sunny 42 5.6 32 -0.1 67 67 N N/A 30.15 1021 10 16.0934 N/A
9:35 am 09:35 Sunny 46 8 31 -0.4 56 56 SSW 3 6 30.15 1021 10 16.0934 N/A
9:55 am 09:55 Sunny 49 9.6 31 -0.6 49 49 SW 5 7 30.15 1021 10 16.0934 N/A
10:15 am 10:15 Sunny 49 9.6 26 -3.5 40 40 SSW 7 11 30.15 1021 10 16.0934 N/A
10:35 am 10:35 Sunny 52 11 24 -4.5 34 34 S 6 9 30.15 1021 10 16.0934 N/A
10:55 am 10:55 Sunny 54 12.3 22 -5.3 29 29 SSW 5 7 30.15 1021 10 16.0934 N/A
11:15 am 11:15 Sunny 55 12.5 22 -5.7 28 28 SW 7 11 30.15 1021 10 16.0934 N/A
11:35 am 11:35 Sunny 55 12.5 22 -5.8 28 28 SW 7 11 30.15 1021 10 16.0934 N/A
11:55 am 11:55 Sunny 55 12.5 19 -7.1 25 25 SSW 6 9 30.15 1021 10 16.0934 N/A
12:15 pm 12:15 Sunny 55 12.5 21 -6.2 27 27 SSW 8 13 30.15 1021 10 16.0934 N/A
12:35 pm 12:35 Sunny 55 13 19 -7.4 24 24 SSW 9 15 30.12 1020 10 16.0934 N/A
12:55 pm 12:55 Sunny 57 13.8 20 -6.6 24 24 SSE 6 9 30.12 1020 10 16.0934 N/A
1:15 pm 13:15 Sunny 57 13.8 20 -6.7 24 24 NW 8 13 30.12 1020 10 16.0934 N/A
1:35 pm 13:35 Sunny 57 13.8 18 -7.9 22 22 SSW 5 7 30.12 1020 10 16.0934 N/A
1:55 pm 13:55 Sunny 57 14 18 -7.9 21 21 S 7 11 30.12 1020 10 16.0934 N/A
2:15 pm 14:15 Sunny 60 15.3 20 -6.8 21 21 SW 5 7 30.12 1020 10 16.0934 N/A
2:35 pm 14:35 Sunny 60 15.3 21 -5.9 23 23 SSW 6 9 30.09 1019 10 16.0934 N/A
2:55 pm 14:55 Sunny 60 15.3 19 -7.2 21 21 WSW 5 7 30.09 1019 10 16.0934 N/A
3:15 pm 15:15 Sunny 60 15.3 18 -8 19 19 N N/A 30.06 1018 10 16.0934 N/A
3:35 pm 15:35 Sunny 60 15.3 17 -8.2 19 19 S 5 7 30.06 1018 10 16.0934 N/A
3:55 pm 15:55 Partly Cloudy 60 15.3 20 -6.4 22 22 S 6 9 30.03 1017 10 16.0934 N/A
4:15 pm 16:15 Sunny 60 15.3 17 -8.1 19 19 WSW 5 7 30.03 1017 10 16.0934 N/A
4:35 pm 16:35 Partly Cloudy 60 15.3 16 -8.9 18 18 WSW 7 11 30.03 1017 10 16.0934 N/A
4:55 pm 16:55 Partly Cloudy 61 15.9 12 -11.2 14 14 WSW 6 9 29.97 1015 10 16.0934 N/A
5:15 pm 17:15 Sunny 61 16 11 -11.4 14 14 N N/A 29.97 1015 10 16.0934 N/A
5:35 pm 17:35 Sunny 61 16 12 -10.9 15 15 N N/A 29.97 1015 10 16.0934 N/A
5:55 pm 17:55 Sunny 61 16 17 -8.6 18 18 WSW 5 7 29.97 1015 10 16.0934 N/A
6:15 pm 18:15 Sunny 61 16 20 -6.8 20 20 N N/A 29.97 1015 10 16.0934 N/A
6:35 pm 18:35 Sunny 61 16 18 -7.6 19 19 N N/A 29.97 1015 10 16.0934 N/A
6:55 pm 18:55 Sunny 60 15.5 16 -8.7 18 18 E 3 6 29.97 1015 10 16.0934 N/A
7:15 pm 19:15 Mostly Cloudy 60 15.3 18 -7.9 20 20 ESE 5 7 30 1016 10 16.0934 N/A
7:35 pm 19:35 Partly Cloudy 60 15.3 22 -5.6 23 23 E 5 7 29.94 1014 10 16.0934 N/A
7:55 pm 19:55 Sunny 60 15.3 22 -5.6 23 23 E 5 7 29.94 1014 10 16.0934 N/A
8:15 pm 20:15 Partly Cloudy 58 14.2 23 -5 26 26 E 5 7 29.97 1015 10 16.0934 N/A
8:35 pm 20:35 Partly Cloudy 57 13.8 30 -1.1 36 36 N N/A 29.97 1015 10 16.0934 N/A
8:55 pm 20:55 Mostly Cloudy 57 13.8 31 -0.6 37 37 N N/A 29.97 1015 10 16.0934 N/A
9:15 pm 21:15 Cloudy 55 12.5 38 3.1 53 53 N N/A 29.97 1015 10 16.0934 N/A
9:35 pm 21:35 Cloudy 55 12.5 35 1.6 48 48 N N/A 29.97 1015 10 16.0934 N/A
9:55 pm 21:55 Cloudy 55 12.5 37 2.6 51 51 N N/A 29.94 1014 10 16.0934 N/A
10:15 pm 22:15 Cloudy 57 13.8 24 -4.3 28 28 ESE 3 6 29.94 1014 10 16.0934 N/A
10:35 pm 22:35 Cloudy 57 13.8 26 -3.3 31 31 ESE 5 7 29.94 1014 10 16.0934 N/A
10:55 pm 22:55 Cloudy 57 13.8 26 -3.3 31 31 SE 6 9 29.94 1014 10 16.0934 N/A
11:15 pm 23:15 Cloudy 57 13.8 26 -3.4 30 30 ESE 3 6 29.94 1014 10 16.0934 N/A
11:35 pm 23:35 Cloudy 57 13.8 27 -3 31 31 N N/A 29.94 1014 10 16.0934 N/A
11:55 pm 23:55 Cloudy 55 12.5 35 1.7 48 48 N N/A 29.94 1014 10 16.0934 N/A

Powered by AerisWeather